Torna al catalogo

YAOGAN 7

AttivoMilitareSSO
NORAD 36110·PAYLOAD·🇨🇳 China

Lanciato Dec 9, 2009 da Jiuquan Satellite Launch Center

Loading…

Prossimi Passaggi (prossime 24 ore)

TLE

AggiornatoSource: Space-Track

Epoca: Sep 14, 2026, 15:40 UTC

1 36110U 09069A   26257.65313116  .00000309  00000-0  49823-4 0  9995
2 36110  97.9918 142.9045 0025831 109.4288 250.9717 14.78078146902842

Traccia YAOGAN 7 in tempo reale con AllMySat

Download on the App Store